STARLINK-31897 (59852 NORAD) Tracking and Keplerian Element Data

This shows tracking and keplerian element data for the satellite.

Feedback or suggestion? Click here.




ElementValue
Catalog59852
NameSTARLINK-31897
Epoch Orbit370
Epoch Day160.16667824
Epoch Year2024
RAAN318.6037
Inclination43.0008
Eccentricity0.0001821
Argument of Perigee280.9665
Mean Anonmoly94.5946
Mean Motion15.66648411
Decay Rate-0.01740671
L11 59852U 24097T 24160.16667824 -.01740671 00000+0 -18377-1 0 9998
L22 59852 43.0008 318.6037 0001821 280.9665 94.5946 15.66648411 3701



Live tracking and technical data element details for STARLINK-31897 (NORAD 59852). STARLINK-31897 can be tracked NOW for your location showing map with azimuth and elevation plus other details from your city location.







IsCatalogInMostPopularTable: catalog: 59852, numindb: 8
Update: records affected: 1



GetName: 59852 STARLINK-31897

Hit Count: updated at: Thu, 25 Jul 2024 00:25:16 GMT